"TOA5","AWS1","CR1000","7964","CR1000.Std.14","CPU:AWS1_114.CR1","64363","TBL110"
"TIMESTAMP","RECORD","Wind_spd_WVc(1)","Wind_spd_WVc(2)","Air_Temp_Avg","Humidity_Avg","SW_upper_Wm2_Avg","Rain_Tot","Press_Avg","Issui_Tot","Depth_cm","SR50A_Raw","Quality","Ground_Temp_Avg(1)","Ground_Temp_Avg(2)","SW_lower_Wm2_Avg","Albedo_Avg","SWC_per(1)","SWC_per(2)","Period(1)","Period(2)"
"TS","RN","","","","","","","","","","","","","","","","","","",""
"","","WVc","WVc","Avg","Avg","Avg","Tot","Avg","Tot","Smp","Smp","Smp","Avg","Avg","Avg","Avg","Smp","Smp","Smp","Smp"
"2017-10-20 00:00:00",310813,0.061,311.8,7.959,100,0,0,866.185,0,-37.27,3.502,229,11.99,12.52,0.2122145,0,52.27,60.03,33.85,35.69
"2017-10-20 00:10:00",310814,0,0,7.932,100,0,0.5,866.3494,0,-30.52,3.436,206,12,12.52,0.07200135,0,52.27,60.03,33.85,35.69
"2017-10-20 00:20:00",310815,0,0,7.838,100,0,0,866.2503,0,-30.35,3.434,199,12.01,12.52,0.09094907,0,52.21,59.97,33.84,35.67
"2017-10-20 00:30:00",310816,0,0,7.901,100,0,0,866.3851,0,-32.07,3.451,387,12.02,12.52,0.3789544,0,52.21,59.97,33.84,35.67
"2017-10-20 00:40:00",310817,0,0,7.992,100,0,0,866.4315,0,3.867,3.096,290,12,12.51,0.382744,0,52.21,59.97,33.84,35.67
"2017-10-20 00:50:00",310818,0.019,315.3,8.03,100,0,0,866.4252,0,2.446,3.11,262,11.98,12.5,0.4130603,0,52.21,59.97,33.84,35.67
"2017-10-20 01:00:00",310819,0.237,223.7,8.01,100,0,0,866.3894,0,3.205,3.103,424,11.94,12.5,0.3296904,0,52.21,59.97,33.84,35.67
"2017-10-20 01:10:00",310820,0.261,196.9,7.888,100,0,0.5,866.3409,0,5.432,3.082,520,11.93,12.5,0,0,52.21,59.97,33.84,35.67
"2017-10-20 01:20:00",310821,0,0,7.86,100,0,0,866.3957,0,-31.44,3.445,193,11.93,12.5,0.1364236,0,52.21,59.91,33.84,35.66
"2017-10-20 01:30:00",310822,0,0,7.949,100,0,0.5,866.3957,0,7.442,3.061,404,11.92,12.51,0.3031636,0,52.27,59.91,33.85,35.66
"2017-10-20 01:40:00",310823,0,0,7.887,100,0,0,866.3599,0,-31.34,3.444,224,11.92,12.5,0.02273727,0,52.21,59.91,33.84,35.66
"2017-10-20 01:50:00",310824,0.061,319.9,7.939,100,0,0,866.4757,0,-32.07,3.451,224,11.92,12.5,0.4395871,0,52.27,59.91,33.85,35.66
"2017-10-20 02:00:00",310825,0.198,303.6,7.897,100,0.003930287,0,866.4631,0,-0.521,3.139,207,11.9,12.5,0.08336998,0.032,52.27,59.91,33.85,35.66
"2017-10-20 02:10:00",310826,0.163,140.1,8.17,100,0.1572115,0,866.3641,0,-32.31,3.452,238,11.9,12.51,0.4699035,0.386,52.27,59.91,33.85,35.66
"2017-10-20 02:20:00",310827,0.888,48.45,8.12,100,0,0.5,866.1492,0,-31.54,3.445,217,11.89,12.5,0.299374,0,52.27,59.91,33.85,35.66
"2017-10-20 02:30:00",310828,1.012,54.46,7.873,100,0.01965144,0,865.9281,0,-31.16,3.442,234,11.89,12.51,0.1212654,0.064,52.27,59.91,33.85,35.66
"2017-10-20 02:40:00",310829,0.278,28.46,8.03,100,0.1572115,0,865.8903,0,-31.7,3.446,211,11.9,12.51,0.4547453,0.37,52.32,59.97,33.87,35.67
"2017-10-20 02:50:00",310830,0.203,301.7,8.11,100,0,0,866.1176,0,-31.54,3.445,222,11.92,12.52,0.1212654,0,52.32,59.97,33.87,35.67
"2017-10-20 03:00:00",310831,0.111,100.9,7.991,100,0,0,866.3873,0,10.36,3.032,336,11.93,12.51,0.03789544,0,52.32,59.97,33.87,35.67
"2017-10-20 03:10:00",310832,0.011,134.7,8.05,100,0,0,866.3725,0,10.46,3.031,374,11.93,12.51,0.04926408,0,52.32,59.97,33.87,35.67
"2017-10-20 03:20:00",310833,0.491,60.14,8.06,100,0,0,866.025,0,-31.72,3.447,242,11.93,12.51,0.1136863,0,52.32,59.97,33.87,35.67
"2017-10-20 03:30:00",310834,0.553,14.67,7.905,100,0,0,865.6732,0,-35.47,3.485,299,11.93,12.52,0,0,52.32,59.97,33.87,35.67
"2017-10-20 03:40:00",310835,0.636,333.3,8.07,100,0.2122355,0,865.5237,0,0.579,3.126,219,11.93,12.51,0.4282185,0.56,52.32,59.97,33.87,35.67
"2017-10-20 03:50:00",310836,0.394,295.1,8.14,100,0.08646631,0,865.7828,0,-39.69,3.525,293,11.92,12.51,0.1212654,0.198,52.32,59.97,33.87,35.67
"2017-10-20 04:00:00",310837,0.206,327.9,7.859,100,0,0,866.1534,0,-39.42,3.524,253,11.88,12.52,0,0,52.27,59.97,33.85,35.67
"2017-10-20 04:10:00",310838,0.074,100.4,7.855,100,0,0,866.3915,0,-30.09,3.432,269,11.84,12.52,0.007579089,0,52.27,59.97,33.85,35.67
"2017-10-20 04:20:00",310839,0.372,130.9,7.8,100,0,0,866.3831,0,-31.38,3.445,235,11.81,12.54,0,0,52.27,59.97,33.85,35.67
"2017-10-20 04:30:00",310840,0.336,133.9,7.797,100,0,0,866.3367,0,-31.99,3.451,220,11.79,12.53,0.007579089,0,52.27,59.97,33.85,35.67
"2017-10-20 04:40:00",310841,0.688,330.4,8.01,100,0.1532812,0,866.3894,0,318,0,0,11.76,12.54,0.3259008,0.45,52.27,59.97,33.85,35.67
"2017-10-20 04:50:00",310842,0.534,225,7.773,100,0,0,866.2883,0,-43.4,3.564,281,11.76,12.54,0,0,52.27,59.97,33.85,35.67
"2017-10-20 05:00:00",310843,0.794,356.9,7.76,100,0,0,866.3115,0,-32.67,3.458,248,11.78,12.54,0.1061072,0,52.27,59.97,33.85,35.67
"2017-10-20 05:10:00",310844,0.387,302.6,7.994,100,0.02358172,0.5,866.3851,0,0.798,3.126,230,11.79,12.54,0.4282185,0.145,52.27,59.97,33.85,35.67
"2017-10-20 05:20:00",310845,0.195,331.8,8.09,100,0.06288459,0,866.4968,0,0.693,3.128,267,11.79,12.54,0.1970563,0.273,52.27,59.91,33.85,35.66
"2017-10-20 05:30:00",310846,0.097,109.2,7.918,100,0,0,866.4652,0,-32.88,3.459,236,11.8,12.54,0.01894772,0,52.21,59.91,33.84,35.66
"2017-10-20 05:40:00",310847,0.248,129.6,7.982,100,0,0,866.3957,0,1.635,3.118,261,11.79,12.54,0.2197936,0,52.21,59.91,33.84,35.66
"2017-10-20 05:50:00",310848,0.101,288.3,8.16,100,0.2083052,0,866.3957,0,1.842,3.115,260,11.8,12.54,0.473693,0.386,52.21,59.91,33.84,35.66
"2017-10-20 06:00:00",310849,0.025,295.9,8.22,100,0.6288459,0,866.3957,0,-34.93,3.477,320,11.8,12.54,0.4547453,0.803,52.27,59.91,33.85,35.66
"2017-10-20 06:10:00",310850,0.198,324.5,8.05,100,1.336298,0,866.6484,0,0.693,3.128,247,11.8,12.54,0.125055,0.133,52.21,59.91,33.84,35.66
"2017-10-20 06:20:00",310851,0.015,9.71,7.889,100,3.828099,0,866.6484,0,-34.23,3.472,394,11.8,12.54,0.2690577,0.06,52.21,59.91,33.84,35.66
"2017-10-20 06:30:00",310852,0.021,91.1,7.958,100,8.202509,0,866.5178,0,-38.87,3.518,311,11.8,12.54,0.9057011,0.113,52.21,59.91,33.84,35.66
"2017-10-20 06:40:00",310853,0.013,311.1,8.05,100,13.41407,0,866.5937,0,-31.65,3.446,241,11.8,12.54,1.58403,0.118,52.16,59.91,33.83,35.66
"2017-10-20 06:50:00",310854,0,0,8.09,100,16.8177,0,866.6484,0,-39.26,3.521,303,11.8,12.54,2.019827,0.12,52.16,59.85,33.83,35.64
"2017-10-20 07:00:00",310855,0,0,8.19,100,22.95288,0,866.7158,0,-30.08,3.429,330,11.8,12.54,2.584469,0.113,52.21,59.85,33.84,35.64
"2017-10-20 07:10:00",310856,0.023,104.5,8.18,100,36.67744,0,866.8949,0,9.35,3.041,418,11.8,12.54,4.320081,0.118,52.21,59.91,33.84,35.66
"2017-10-20 07:20:00",310857,0.591,129.5,8.35,100,61.44218,0,866.6484,0,1.801,3.113,226,11.8,12.54,7.230451,0.117,52.16,59.85,33.83,35.64
"2017-10-20 07:30:00",310858,0.433,310.5,8.74,100,51.43174,0,866.8444,0,-34.15,3.468,346,11.8,12.54,6.271696,0.121,52.21,59.91,33.84,35.66
"2017-10-20 07:40:00",310859,0.184,328.2,8.29,100,63.04966,0,866.9012,0,-33.61,3.464,273,11.8,12.54,7.15087,0.113,52.16,59.91,33.83,35.66
"2017-10-20 07:50:00",310860,0.392,151.4,8.46,100,105.9016,0,866.9012,0,7.436,3.058,433,11.8,12.54,12.25539,0.116,52.16,59.91,33.83,35.66
"2017-10-20 08:00:00",310861,0.372,269.1,8.79,100,103.9757,0,867.0043,0,-30.71,3.432,252,11.8,12.51,11.90675,0.115,52.21,59.91,33.84,35.66
"2017-10-20 08:10:00",310862,0.159,356.6,8.65,100,104.4356,0,867.0507,0,8.05,3.052,392,11.8,12.52,12.11896,0.116,52.16,59.85,33.83,35.64
"2017-10-20 08:20:00",310863,0.365,139.9,8.89,100,142.5908,0,866.9012,0,8.12,3.048,362,11.8,12.5,16.52241,0.116,52.16,59.85,33.83,35.64
"2017-10-20 08:30:00",310864,0.34,282.2,9.46,100,164.0227,0,866.9854,0,3.985,3.087,265,11.77,12.49,19.69047,0.12,52.21,59.85,33.84,35.64
"2017-10-20 08:40:00",310865,0.174,332.3,9.27,100,130.1554,0,867.1413,0,8.78,3.041,363,11.76,12.49,15.12407,0.116,52.16,59.85,33.83,35.64
"2017-10-20 08:50:00",310866,0.179,302.9,9.33,100,159.9509,0,867.1666,0,-32.51,3.446,196,11.76,12.49,19.31152,0.121,52.1,59.85,33.81,35.64
"2017-10-20 09:00:00",310867,0.304,77.78,9.57,100,181.6382,0,867.0928,0,7.317,3.054,299,11.76,12.47,22.18399,0.122,52.16,59.85,33.83,35.64
"2017-10-20 09:10:00",310868,0.401,136.2,9.92,100,132.152,0,866.8759,0,-29.51,3.409,197,11.77,12.46,19.91784,0.162,52.1,59.79,33.81,35.63
"2017-10-20 09:20:00",310869,0.614,118.1,11.27,100,81.47485,0,866.6484,0,9.15,3.026,289,11.82,12.45,17.8677,0.224,52.1,59.79,33.81,35.63
"2017-10-20 09:30:00",310870,0.376,332.5,11.58,100,208.5489,0,866.6385,0,8.05,3.037,315,11.86,12.46,34.29917,0.177,52.1,59.79,33.81,35.63
"2017-10-20 09:40:00",310871,0.412,308.8,11.1,100,228.6995,0,866.7548,0,8.16,3.038,310,11.83,12.48,28.94454,0.124,52.1,59.79,33.81,35.63
"2017-10-20 09:50:00",310872,0.233,284.1,10.54,100,103.7574,0,866.8654,0,2.816,3.095,237,11.82,12.49,11.86861,0.114,52.1,59.79,33.81,35.63
"2017-10-20 10:00:00",310873,0.4,330.9,9.84,100,152.9358,0,866.9119,0,12.15,3.005,358,11.84,12.44,18.95011,0.124,52.1,59.79,33.81,35.63
"2017-10-20 10:10:00",310874,0.321,353.4,9.72,100,229.3814,0,866.8149,0,-28.3,3.402,215,11.84,12.42,28.399,0.123,52.1,59.79,33.81,35.63
"2017-10-20 10:20:00",310875,0.459,123.2,10.44,100,236.2997,0,866.5941,0,-28.07,3.394,298,11.85,12.42,28.02741,0.118,52.1,59.73,33.81,35.62
"2017-10-20 10:30:00",310876,0.037,148.9,11.22,100,284.3149,0,866.5688,0,11.19,3.004,326,11.88,12.41,34.93782,0.123,52.05,59.73,33.8,35.62
"2017-10-20 10:40:00",310877,0.368,319.8,11.56,100,326.8034,0,866.5674,0,10.91,3.008,288,11.85,12.42,40.9907,0.125,52.05,59.73,33.8,35.62
"2017-10-20 10:50:00",310878,0.265,344.1,11.39,100,242.0376,0,866.5424,0,-28.74,3.397,200,11.86,12.41,30.2439,0.125,52.05,59.73,33.8,35.62
"2017-10-20 11:00:00",310879,0.26,347.6,11.59,100,250.5016,0,866.5574,0,-28.29,3.39,200,11.89,12.41,30.45471,0.12,52.05,59.73,33.8,35.62
"2017-10-20 11:10:00",310880,0.057,221.9,11.82,100,196.7164,0,866.5486,0,-28.97,3.397,197,11.88,12.41,22.22589,0.113,52.05,59.73,33.8,35.62
"2017-10-20 11:20:00",310881,0.066,27.86,11.95,100,241.9138,0,866.5042,0,12.51,2.989,328,11.92,12.4,28.52941,0.117,52.05,59.73,33.8,35.62
"2017-10-20 11:30:00",310882,0.161,11.27,12.1,100,218.0252,0,866.3526,0,-30.51,3.411,246,11.97,12.41,26.48369,0.121,51.99,59.67,33.79,35.6
"2017-10-20 11:40:00",310883,0.021,94.9,12.18,100,163.2359,0,866.2936,0,-34.27,3.447,213,11.94,12.4,19.24432,0.117,51.99,59.67,33.79,35.6
"2017-10-20 11:50:00",310884,0.1,59.66,12.14,100,121.6638,0,866.2916,0,-31.15,3.417,200,11.97,12.4,13.88394,0.114,51.99,59.67,33.79,35.6
"2017-10-20 12:00:00",310885,0.113,56.04,11.98,100,112.4818,0,866.1084,0,10.57,3.008,446,11.97,12.4,13.35359,0.118,51.99,59.67,33.79,35.6
"2017-10-20 12:10:00",310886,0.135,123.6,12.13,100,139.8587,0,865.8915,0,9.9,3.015,347,12.03,12.4,16.95622,0.121,51.99,59.67,33.79,35.6
"2017-10-20 12:20:00",310887,0.242,29.13,11.95,100,140.5659,0,865.7989,0,11.74,2.997,368,12.05,12.4,17.2176,0.122,51.94,59.67,33.77,35.6
"2017-10-20 12:30:00",310888,0.089,280.3,11.92,100,105.0286,0,865.7989,0,11.22,3.003,322,12.07,12.39,11.75873,0.111,51.94,59.67,33.77,35.6
"2017-10-20 12:40:00",310889,0.049,349.8,11.93,100,91.48159,0,865.7989,0,11.28,3.002,299,12.09,12.39,10.01993,0.109,51.94,59.61,33.77,35.59
"2017-10-20 12:50:00",310890,0.045,322.3,11.72,100,93.67394,0,865.7884,0,11.11,3.005,280,12.14,12.38,10.83061,0.115,51.94,59.61,33.77,35.59
"2017-10-20 13:00:00",310891,0.114,350.7,11.68,100,106.1876,0,865.6452,0,11.05,3.007,300,12.16,12.35,12.22848,0.115,51.88,59.61,33.76,35.59
"2017-10-20 13:10:00",310892,0.235,26.25,11.48,100,126.681,0,865.5462,0,10.74,3.01,300,12.15,12.33,14.95981,0.118,51.94,59.61,33.77,35.59
"2017-10-20 13:20:00",310893,0.34,13.23,11.46,100,113.8965,0,865.4894,0,10.1,3.016,310,12.21,12.35,13.31574,0.117,51.94,59.61,33.77,35.59
"2017-10-20 13:30:00",310894,0.123,3.012,11.68,100,191.6177,0,865.2936,0,10.04,3.015,274,12.23,12.35,23.05566,0.12,51.94,59.56,33.77,35.58
"2017-10-20 13:40:00",310895,0.036,103,11.99,100,105.9345,0,865.3588,0,10.05,3.014,266,12.26,12.39,11.36879,0.105,51.94,59.56,33.77,35.58
"2017-10-20 13:50:00",310896,0.052,279.7,11.91,100,53.17492,0,865.542,0,10.35,3.012,292,12.31,12.37,5.167229,0.097,51.88,59.56,33.76,35.58
"2017-10-20 14:00:00",310897,0.028,339.9,11.78,100,54.76209,0,865.5883,0,11.16,3.005,307,12.32,12.38,5.724095,0.104,51.88,59.56,33.76,35.58
"2017-10-20 14:10:00",310898,0.046,344.6,11.86,100,77.31879,0,865.6936,0,10.46,3.01,307,12.32,12.4,8.59566,0.111,51.88,59.56,33.76,35.58
"2017-10-20 14:20:00",310899,0,0,11.86,100,76.04163,0.5,865.7484,0,9.25,3.023,288,12.34,12.41,8.103156,0.106,51.82,59.56,33.75,35.58
"2017-10-20 14:30:00",310900,0,0,11.91,100,89.30437,0,865.5694,0,9.3,3.022,285,12.36,12.41,9.971053,0.111,51.88,59.56,33.76,35.58
"2017-10-20 14:40:00",310901,0.025,133.2,11.9,100,71.18302,0,865.6515,0,8.82,3.026,305,12.33,12.42,7.64494,0.107,51.88,59.5,33.76,35.56
"2017-10-20 14:50:00",310902,0,0,11.99,100,45.71605,0,865.7989,0,9.6,3.019,334,12.37,12.42,4.76212,0.104,51.82,59.56,33.75,35.58
"2017-10-20 15:00:00",310903,0,0,11.93,100,105.0343,0,865.8024,0,9.58,3.019,318,12.41,12.43,12.27081,0.115,51.82,59.56,33.75,35.58
"2017-10-20 15:10:00",310904,0,0,12,100,49.13036,0,865.8017,0,9.07,3.024,285,12.41,12.44,5.057606,0.102,51.82,59.56,33.75,35.58
"2017-10-20 15:20:00",310905,0,0,11.91,100,51.56086,0,865.9785,0,8.45,3.03,301,12.44,12.45,5.671591,0.109,51.82,59.56,33.75,35.58
"2017-10-20 15:30:00",310906,0,0,11.93,100,71.84116,0.5,866.0643,0,-31.88,3.425,251,12.48,12.49,8.001706,0.111,51.82,59.5,33.75,35.56
"2017-10-20 15:40:00",310907,0.039,9.02,11.96,100,55.90308,0,866.2169,0,-32.06,3.426,200,12.52,12.5,5.997442,0.106,51.82,59.5,33.75,35.56
"2017-10-20 15:50:00",310908,0.067,21.99,11.92,100,32.66906,0,866.2803,0,-31.6,3.423,194,12.52,12.5,3.538639,0.108,51.77,59.44,33.73,35.55
"2017-10-20 16:00:00",310909,0,0,11.8,100,36.41428,0,866.2542,0,8.23,3.033,311,12.53,12.5,4.148675,0.114,51.77,59.5,33.73,35.56
"2017-10-20 16:10:00",310910,0,0,11.84,100,34.11579,0,866.3212,0,8.18,3.033,361,12.54,12.5,3.864546,0.113,51.77,59.5,33.73,35.56
"2017-10-20 16:20:00",310911,0,0,11.72,100,21.3732,0,866.3228,0,8.62,3.03,428,12.58,12.5,2.364276,0.109,51.82,59.5,33.75,35.56
"2017-10-20 16:30:00",310912,0.036,52.6,11.66,100,11.95458,0,866.3988,0,8.54,3.031,441,12.59,12.51,1.246619,0.104,51.77,59.44,33.73,35.55
"2017-10-20 16:40:00",310913,0.077,20.56,11.59,100,12.89829,0,866.5209,0,8.36,3.033,455,12.58,12.52,1.697596,0.131,51.82,59.44,33.75,35.55
"2017-10-20 16:50:00",310914,0.067,340.8,11.54,100,5.769262,0.5,866.5775,0,7.255,3.044,528,12.58,12.52,0.6555455,0.109,51.77,59.44,33.73,35.55
"2017-10-20 17:00:00",310915,0.009,300.8,11.43,100,1.788182,0,866.5761,0,7.502,3.042,427,12.63,12.53,0.1174687,0.049,51.77,59.44,33.73,35.55
"2017-10-20 17:10:00",310916,0,0,11.36,100,1.304781,0,866.7079,0,7.781,3.04,492,12.66,12.57,0.2425167,0.194,51.82,59.44,33.75,35.55
"2017-10-20 17:20:00",310917,0.077,19.94,11.2,100,0.224012,0,866.6509,0,7.52,3.043,453,12.66,12.56,0.01894652,0.016,51.82,59.44,33.75,35.55
"2017-10-20 17:30:00",310918,0.053,28.48,11.21,100,0,0,866.7055,0,6.6,3.052,392,12.66,12.58,0.09094487,0,51.77,59.44,33.73,35.55
"2017-10-20 17:40:00",310919,0.159,38.65,11.21,100,0,0,866.8438,0,7.209,3.046,400,12.67,12.58,0.02652617,0,51.77,59.44,33.73,35.55
"2017-10-20 17:50:00",310920,0,0,11.26,100,0,0,866.842,0,4.867,3.068,310,12.68,12.58,0.2387387,0,51.77,59.44,33.73,35.55
"2017-10-20 18:00:00",310921,0,0,11.27,100,0,0,866.8653,0,2.003,3.097,226,12.69,12.58,0.1326334,0,51.77,59.44,33.73,35.55
"2017-10-20 18:10:00",310922,0,0,11.28,100,0,0,866.8845,0,4.404,3.073,310,12.7,12.58,0.05684308,0,51.77,59.44,33.73,35.55
"2017-10-20 18:20:00",310923,0,0,11.32,100,0,0,866.9239,0,2.669,3.09,246,12.71,12.59,0.1705293,0,51.77,59.44,33.73,35.55
"2017-10-20 18:30:00",310924,0.021,108.8,11.35,100,0,0,866.9251,0,5.22,3.065,341,12.71,12.62,0.03031633,0,51.82,59.44,33.75,35.55
"2017-10-20 18:40:00",310925,0,0,11.38,100,0,0,867.1393,0,2.723,3.089,248,12.71,12.67,0,0,51.77,59.44,33.73,35.55
"2017-10-20 18:50:00",310926,0.023,40.16,11.39,100,0,0,867.148,0,1.805,3.098,224,12.72,12.67,0.02273725,0,51.77,59.44,33.73,35.55
"2017-10-20 19:00:00",310927,0.208,76.3,11.36,100,0,0,867.2081,0,3.179,3.085,258,12.72,12.67,0,0,51.82,59.44,33.75,35.55
"2017-10-20 19:10:00",310928,0.072,61,11.38,100,0,0,867.1859,0,3.767,3.079,278,12.73,12.66,0.05305357,0,51.77,59.44,33.73,35.55
"2017-10-20 19:20:00",310929,0,0,11.39,100,0,0,867.2528,0,1.396,3.102,216,12.72,12.64,0.09852806,0,51.77,59.38,33.73,35.54
"2017-10-20 19:30:00",310930,0,0,11.38,100,0,0,867.3963,0,0.886,3.107,207,12.73,12.63,0.01515816,0,51.77,59.38,33.73,35.54
"2017-10-20 19:40:00",310931,0.18,5.696,11.22,100,0,0,867.3976,0,1.793,3.1,214,12.72,12.63,0,0,51.77,59.38,33.73,35.54
"2017-10-20 19:50:00",310932,0.094,16.94,10.95,100,0,0,867.3944,0,1.609,3.103,234,12.73,12.63,0,0,51.77,59.38,33.73,35.54
"2017-10-20 20:00:00",310933,0.039,6.39,10.87,100,0,0.5,867.4349,0,0.998,3.109,233,12.71,12.62,0,0,51.77,59.38,33.73,35.54
"2017-10-20 20:10:00",310934,0,0,10.86,100,0,0,867.4916,0,0.667,3.112,215,12.71,12.64,0,0,51.77,59.38,33.73,35.54
"2017-10-20 20:20:00",310935,0.006,141.3,10.87,100,0,0,867.397,0,0.768,3.111,227,12.71,12.66,0.01515814,0,51.77,59.38,33.73,35.54
"2017-10-20 20:30:00",310936,0,141.3,10.97,100,0,0,867.4008,0,0.521,3.112,207,12.72,12.69,0.3637958,0,51.71,59.38,33.72,35.54
"2017-10-20 20:40:00",310937,0,0,11.17,100,0,0,867.4014,0,0.575,3.111,203,12.72,12.7,0.4547449,0,51.77,59.38,33.73,35.54
"2017-10-20 20:50:00",310938,0,0,11.21,100,0,0,867.4053,0,0.755,3.109,195,12.72,12.67,0.272847,0,51.77,59.38,33.73,35.54
"2017-10-20 21:00:00",310939,0,0,11.23,100,0,0,867.4036,0,0.778,3.109,198,12.72,12.67,0.2084248,0,51.77,59.32,33.73,35.52
"2017-10-20 21:10:00",310940,0,0,11.27,100,0,0,867.4072,0,0.754,3.109,199,12.72,12.67,0.1061071,0,51.77,59.32,33.73,35.52
"2017-10-20 21:20:00",310941,0.119,61.16,11.26,100,0,0,867.3341,0,0.778,3.109,199,12.72,12.68,0.003789541,0,51.71,59.32,33.72,35.52
"2017-10-20 21:30:00",310942,0.119,65.44,11.21,100,0,0,867.3032,0,0.802,3.109,200,12.7,12.7,0,0,51.77,59.32,33.73,35.52
"2017-10-20 21:40:00",310943,0.161,312.7,11.21,100,0,0,867.3939,0,0.779,3.109,200,12.71,12.75,0,0,51.71,59.32,33.72,35.52
"2017-10-20 21:50:00",310944,0,0,11.23,100,0,0,867.5465,0,0.677,3.11,200,12.69,12.75,0.01136862,0,51.71,59.32,33.72,35.52
"2017-10-20 22:00:00",310945,0,0,11.1,100,0,0,867.6247,0,0.773,3.11,195,12.69,12.74,0,0,51.77,59.26,33.73,35.51
"2017-10-20 22:10:00",310946,0,0,11.03,100,0,0,867.8438,0,0.671,3.111,199,12.67,12.74,0,0,51.77,59.32,33.73,35.52
"2017-10-20 22:20:00",310947,0,0,10.91,100,0,0,867.9016,0,0.666,3.112,194,12.67,12.73,0,0,51.71,59.32,33.72,35.52
"2017-10-20 22:30:00",310948,0,0,10.88,100,0,0,867.9008,0,0.72,3.111,197,12.67,12.76,0.003789541,0,51.71,59.26,33.72,35.51
"2017-10-20 22:40:00",310949,0.169,119.1,10.85,100,0,0,867.9019,0,0.715,3.112,194,12.67,12.76,0,0,51.71,59.26,33.72,35.51
"2017-10-20 22:50:00",310950,0.198,104.2,10.86,100,0,0,867.6599,0,0.821,3.11,192,12.67,12.78,0.2652679,0,51.71,59.26,33.72,35.51
"2017-10-20 23:00:00",310951,0.04,83.2,10.9,100,0,0,867.671,0,0.666,3.112,193,12.67,12.79,0.1440025,0,51.71,59.26,33.72,35.51
"2017-10-20 23:10:00",310952,0,0,10.84,100,0,0,867.7723,0,0.738,3.112,193,12.67,12.78,0.3979018,0,51.71,59.26,33.72,35.51
"2017-10-20 23:20:00",310953,0.102,18.05,10.7,100,0,0,867.6929,0,0.811,3.112,197,12.67,12.79,0.4547449,0,51.71,59.26,33.72,35.51
"2017-10-20 23:30:00",310954,0.01,151.7,10.59,100,0,0,867.6546,0,0.68,3.114,197,12.67,12.79,0.4547449,0,51.71,59.26,33.72,35.51
"2017-10-20 23:40:00",310955,0,0,10.55,100,0,0,867.4805,0,0.661,3.113,193,12.67,12.78,0.5153776,0,51.66,59.26,33.7,35.51
"2017-10-20 23:50:00",310956,0,0,10.67,100,0,0,867.4188,0,0.686,3.113,194,12.65,12.77,0.511588,0,51.71,59.2,33.72,35.5
